Time,TemperatureF,DewpointF,PressureIn,WindDirection,WindDirectionDegrees,WindSpeedMPH,WindSpeedGustMPH,Humidity,HourlyPrecipIn,Conditions,Clouds,dailyrainin,SoftwareType,DateUTC
2013-06-10 00:00:00,72.7,61.8,29.85,South,177,7.1,13.0,69,0.00,,OVC100,0.00,VWS V14.01,2013-06-10 04:00:00,
2013-06-10 00:01:00,72.5,62.0,29.85,SSE,154,7.1,10.6,70,0.00,,OVC100,0.00,VWS V14.01,2013-06-10 04:01:00,
2013-06-10 00:02:00,72.5,62.0,29.85,SSE,150,5.9,5.9,70,0.00,,OVC100,0.00,VWS V14.01,2013-06-10 04:02:00,
2013-06-10 00:07:00,72.3,62.3,29.86,South,187,13.0,13.0,71,0.00,,OVC100,0.00,VWS V14.01,2013-06-10 04:07:00,
2013-06-10 00:12:00,72.0,63.2,29.86,South,173,10.6,11.8,74,0.01,,OVC100,0.01,VWS V14.01,2013-06-10 04:12:00,
2013-06-10 00:17:00,71.5,63.5,29.86,SSE,147,7.1,8.3,76,0.05,,OVC100,0.05,VWS V14.01,2013-06-10 04:17:00,
2013-06-10 00:22:00,70.8,63.2,29.86,SE,146,4.7,7.1,77,0.06,,OVC100,0.06,VWS V14.01,2013-06-10 04:22:00,
2013-06-10 00:27:00,70.1,63.2,29.86,South,186,2.4,5.9,79,0.08,,OVC100,0.08,VWS V14.01,2013-06-10 04:27:00,
2013-06-10 00:32:00,69.6,63.1,29.86,South,182,0.0,1.2,80,0.09,,OVC100,0.09,VWS V14.01,2013-06-10 04:32:00,
2013-06-10 00:37:00,69.1,62.6,29.86,South,181,0.0,0.0,80,0.09,,OVC100,0.09,VWS V14.01,2013-06-10 04:37:00,
2013-06-10 00:42:00,68.8,63.0,29.86,South,175,0.0,0.0,82,0.10,,OVC100,0.10,VWS V14.01,2013-06-10 04:42:00,
2013-06-10 00:47:00,68.4,62.6,29.85,South,175,1.2,1.2,82,0.11,,OVC100,0.11,VWS V14.01,2013-06-10 04:47:00,
2013-06-10 00:52:00,68.1,62.7,29.85,South,175,1.2,1.2,83,0.13,,-RA,0.13,VWS V14.01,2013-06-10 04:52:00,
2013-06-10 00:57:00,67.9,62.8,29.85,SE,144,0.0,2.4,84,0.15,,-RA,0.15,VWS V14.01,2013-06-10 04:57:00,
2013-06-10 01:02:00,67.6,62.9,29.84,SE,144,0.0,1.2,85,0.16,,-RA,0.16,VWS V14.01,2013-06-10 05:02:00,
2013-06-10 01:07:00,67.4,63.0,29.84,SE,143,2.4,2.4,86,0.18,,-RA,0.18,VWS V14.01,2013-06-10 05:07:00,
2013-06-10 01:12:00,67.3,62.9,29.84,SE,143,0.0,0.0,86,0.19,,-RA,0.20,VWS V14.01,2013-06-10 05:12:00,
2013-06-10 01:17:00,67.1,62.7,29.84,SE,143,0.0,1.2,86,0.18,,-RA,0.23,VWS V14.01,2013-06-10 05:17:00,
2013-06-10 01:22:00,66.9,62.9,29.84,SE,144,0.0,0.0,87,0.19,,-RA,0.25,VWS V14.01,2013-06-10 05:22:00,
2013-06-10 01:28:00,66.8,62.8,29.84,SE,143,0.0,1.2,87,0.18,,-RA,0.26,VWS V14.01,2013-06-10 05:28:00,
2013-06-10 01:33:00,66.6,62.9,29.83,SE,143,0.0,0.0,88,0.19,,-RA,0.27,VWS V14.01,2013-06-10 05:33:00,
2013-06-10 01:38:00,66.6,62.9,29.84,SE,143,1.2,1.2,88,0.19,,-RA,0.28,VWS V14.01,2013-06-10 05:38:00,
2013-06-10 01:43:00,66.4,62.7,29.83,SE,144,0.0,0.0,88,0.21,,-RA,0.31,VWS V14.01,2013-06-10 05:43:00,
2013-06-10 01:48:00,66.4,63.0,29.83,SE,144,0.0,0.0,89,0.24,,-RA,0.35,VWS V14.01,2013-06-10 05:48:00,
2013-06-10 01:53:00,66.3,62.9,29.83,SE,144,0.0,0.0,89,0.26,, +RA,0.39,VWS V14.01,2013-06-10 05:53:00,
2013-06-10 01:58:00,66.3,62.9,29.83,SE,144,2.4,2.4,89,0.32,, +RA,0.46,VWS V14.01,2013-06-10 05:58:00,
2013-06-10 02:03:00,66.3,63.2,29.83,South,175,1.2,1.2,90,0.51,, +RA,0.67,VWS V14.01,2013-06-10 06:03:00,
2013-06-10 02:08:00,66.3,63.2,29.82,South,175,0.0,0.0,90,0.57,, +RA,0.75,VWS V14.01,2013-06-10 06:08:00,
2013-06-10 02:13:00,66.1,63.4,29.82,South,175,0.0,0.0,91,0.57,, +RA,0.77,VWS V14.01,2013-06-10 06:13:00,
2013-06-10 02:18:00,66.1,63.4,29.81,South,175,0.0,0.0,91,0.58,, +RA,0.80,VWS V14.01,2013-06-10 06:18:00,
2013-06-10 02:23:00,66.1,63.4,29.81,South,175,0.0,0.0,91,0.58,, +RA,0.82,VWS V14.01,2013-06-10 06:23:00,
2013-06-10 02:28:00,66.1,63.4,29.81,South,175,2.4,2.4,91,0.58,, +RA,0.84,VWS V14.01,2013-06-10 06:28:00,
2013-06-10 02:33:00,66.1,63.4,29.80,ESE,105,2.4,5.9,91,0.58,, +RA,0.85,VWS V14.01,2013-06-10 06:33:00,
2013-06-10 02:38:00,66.1,63.7,29.79,East,86,2.4,5.9,92,0.58,, +RA,0.86,VWS V14.01,2013-06-10 06:38:00,
2013-06-10 02:43:00,66.1,63.7,29.79,ESE,105,0.0,2.4,92,0.57,, +RA,0.87,VWS V14.01,2013-06-10 06:43:00,
2013-06-10 02:48:00,66.1,64.0,29.79,ESE,105,0.0,2.4,93,0.52,, +RA,0.87,VWS V14.01,2013-06-10 06:48:00,
2013-06-10 02:53:00,66.1,64.0,29.80,ESE,105,0.0,0.0,93,0.50,,-RA,0.88,VWS V14.01,2013-06-10 06:53:00,
2013-06-10 02:58:00,66.0,63.9,29.79,ESE,105,0.0,0.0,93,0.45,,-RA,0.89,VWS V14.01,2013-06-10 06:58:00,
2013-06-10 03:03:00,66.0,63.9,29.80,ESE,105,0.0,0.0,93,0.26,,-RA,0.90,VWS V14.01,2013-06-10 07:03:00,
2013-06-10 05:12:00,66.4,66.4,29.75,ESE,112,4.7,7.1,100,0.01,,-RA,0.95,VWS V14.01,2013-06-10 09:12:00,
2013-06-10 05:17:00,66.4,66.4,29.75,SE,125,4.7,4.7,100,0.01,,-RA,0.95,VWS V14.01,2013-06-10 09:17:00,
2013-06-10 05:22:00,66.4,66.4,29.75,ESE,114,4.7,5.9,100,0.01,,-RA,0.95,VWS V14.01,2013-06-10 09:22:00,
2013-06-10 05:27:00,66.4,66.4,29.75,ESE,105,2.4,2.4,100,0.00,,-RA,0.95,VWS V14.01,2013-06-10 09:27:00,
2013-06-10 05:32:00,66.4,66.4,29.74,ESE,111,2.4,4.7,100,0.00,,-RA,0.95,VWS V14.01,2013-06-10 09:32:00,
2013-06-10 05:37:00,66.4,66.4,29.74,ESE,121,2.4,4.7,100,0.00,,-RA,0.95,VWS V14.01,2013-06-10 09:37:00,
2013-06-10 05:42:00,66.4,66.4,29.74,South,175,2.4,5.9,100,0.00,,-RA,0.95,VWS V14.01,2013-06-10 09:42:00,
2013-06-10 05:47:00,66.4,66.4,29.74,South,169,0.0,1.2,100,0.00,,-RA,0.95,VWS V14.01,2013-06-10 09:47:00,
2013-06-10 05:52:00,66.4,66.4,29.74,SSE,158,2.4,4.7,100,0.00,,,0.95,VWS V14.01,2013-06-10 09:52:00,
2013-06-10 05:57:00,66.3,66.3,29.74,SE,132,0.0,1.2,100,0.00,,,0.95,VWS V14.01,2013-06-10 09:57:00,
2013-06-10 06:02:00,66.3,66.3,29.74,SE,132,1.2,1.2,100,0.00,,,0.95,VWS V14.01,2013-06-10 10:02:00,
2013-06-10 06:07:00,66.3,66.3,29.74,SE,132,0.0,0.0,100,0.00,,,0.95,VWS V14.01,2013-06-10 10:07:00,
2013-06-10 06:12:00,66.3,66.3,29.74,SE,131,1.2,2.4,100,0.01,,,0.96,VWS V14.01,2013-06-10 10:12:00,
2013-06-10 06:17:00,66.3,66.3,29.74,SE,132,1.2,5.9,100,0.01,,,0.96,VWS V14.01,2013-06-10 10:17:00,
2013-06-10 06:22:00,66.3,66.3,29.74,SE,131,1.2,2.4,100,0.01,,,0.96,VWS V14.01,2013-06-10 10:22:00,
2013-06-10 06:27:00,66.3,66.3,29.74,ESE,119,4.7,5.9,100,0.01,,,0.96,VWS V14.01,2013-06-10 10:27:00,
2013-06-10 06:32:00,66.3,66.3,29.74,ESE,121,4.7,5.9,100,0.01,,,0.96,VWS V14.01,2013-06-10 10:32:00,
2013-06-10 06:37:00,66.3,66.3,29.74,SE,125,0.0,1.2,100,0.01,,,0.96,VWS V14.01,2013-06-10 10:37:00,
2013-06-10 06:43:00,66.3,66.3,29.74,SE,125,0.0,1.2,100,0.01,,,0.96,VWS V14.01,2013-06-10 10:43:00,
2013-06-10 06:47:00,66.3,66.3,29.74,SE,130,4.7,4.7,100,0.01,,,0.96,VWS V14.01,2013-06-10 10:47:00,
2013-06-10 06:52:00,66.3,66.3,29.74,SE,143,1.2,1.2,100,0.01,,,0.96,VWS V14.01,2013-06-10 10:52:00,
2013-06-10 06:58:00,66.1,66.1,29.74,SE,144,1.2,2.4,100,0.01,,,0.96,VWS V14.01,2013-06-10 10:58:00,
2013-06-10 07:03:00,66.1,66.1,29.74,SE,140,0.0,1.2,100,0.01,,,0.96,VWS V14.01,2013-06-10 11:03:00,
2013-06-10 07:08:00,66.1,66.1,29.74,SE,142,1.2,4.7,100,0.01,,,0.96,VWS V14.01,2013-06-10 11:08:00,
2013-06-10 07:13:00,66.1,66.1,29.74,SE,142,1.2,2.4,100,0.00,,,0.96,VWS V14.01,2013-06-10 11:13:00,
2013-06-10 07:18:00,66.0,66.0,29.74,South,186,0.0,1.2,100,0.00,,,0.96,VWS V14.01,2013-06-10 11:18:00,
2013-06-10 07:23:00,66.0,66.0,29.74,SE,132,0.0,1.2,100,0.00,,,0.96,VWS V14.01,2013-06-10 11:23:00,
2013-06-10 07:28:00,66.0,66.0,29.74,SE,132,0.0,0.0,100,0.00,,,0.96,VWS V14.01,2013-06-10 11:28:00,
2013-06-10 07:33:00,66.0,66.0,29.74,SE,132,0.0,0.0,100,0.00,,,0.96,VWS V14.01,2013-06-10 11:33:00,
2013-06-10 07:38:00,66.1,66.1,29.74,SE,132,0.0,1.2,100,0.00,,,0.96,VWS V14.01,2013-06-10 11:38:00,
2013-06-10 07:43:00,66.1,66.1,29.74,SE,132,0.0,0.0,100,0.00,,,0.96,VWS V14.01,2013-06-10 11:43:00,
2013-06-10 07:48:00,66.3,66.3,29.74,SSW,203,0.0,2.4,100,0.00,,,0.96,VWS V14.01,2013-06-10 11:48:00,
2013-06-10 07:53:00,66.3,66.3,29.74,SSW,199,4.7,4.7,100,0.00,,,0.96,VWS V14.01,2013-06-10 11:53:00,
2013-06-10 07:58:00,66.3,66.3,29.74,SSW,195,2.4,5.9,100,0.00,,,0.96,VWS V14.01,2013-06-10 11:58:00,
2013-06-10 08:03:00,66.1,66.1,29.73,South,182,1.2,2.4,100,0.00,,,0.96,VWS V14.01,2013-06-10 12:03:00,
2013-06-10 08:08:00,66.1,66.1,29.74,South,169,5.9,7.1,100,0.00,,,0.96,VWS V14.01,2013-06-10 12:08:00,
2013-06-10 08:13:00,66.0,66.0,29.74,South,175,2.4,7.1,100,0.00,,,0.96,VWS V14.01,2013-06-10 12:13:00,
2013-06-10 08:18:00,66.0,66.0,29.74,South,186,4.7,4.7,100,0.00,,,0.96,VWS V14.01,2013-06-10 12:18:00,
2013-06-10 08:23:00,65.8,65.8,29.74,SE,142,4.7,4.7,100,0.00,,,0.96,VWS V14.01,2013-06-10 12:23:00,
2013-06-10 08:28:00,65.6,65.6,29.74,SSE,163,0.0,4.7,100,0.00,,,0.96,VWS V14.01,2013-06-10 12:28:00,
2013-06-10 08:33:00,65.6,65.6,29.73,SSW,199,1.2,2.4,100,0.00,,,0.96,VWS V14.01,2013-06-10 12:33:00,
2013-06-10 08:38:00,65.6,65.6,29.73,SSW,205,2.4,4.7,100,0.00,,,0.96,VWS V14.01,2013-06-10 12:38:00,
2013-06-10 08:43:00,65.6,65.6,29.73,SW,225,0.0,4.7,100,0.00,,,0.96,VWS V14.01,2013-06-10 12:43:00,
2013-06-10 08:48:00,65.6,65.6,29.73,SW,235,3.5,3.5,100,0.00,,,0.96,VWS V14.01,2013-06-10 12:48:00,
2013-06-10 08:53:00,65.6,65.6,29.73,SSW,209,0.0,2.4,100,0.00,,,0.96,VWS V14.01,2013-06-10 12:53:00,
2013-06-10 08:58:00,65.6,65.6,29.74,South,190,1.2,3.5,100,0.00,,,0.96,VWS V14.01,2013-06-10 12:58:00,
2013-06-10 09:03:00,65.8,65.8,29.73,South,181,1.2,3.5,100,0.00,,BKN060,0.96,VWS V14.01,2013-06-10 13:03:00,
2013-06-10 09:08:00,66.0,66.0,29.74,SSE,166,0.0,0.0,100,0.00,,BKN060,0.96,VWS V14.01,2013-06-10 13:08:00,
2013-06-10 09:13:00,66.1,66.1,29.74,SSW,213,3.5,3.5,100,0.00,,BKN060,0.96,VWS V14.01,2013-06-10 13:13:00,
2013-06-10 09:18:00,66.1,66.1,29.73,SSE,165,2.4,2.4,100,0.00,,BKN060,0.96,VWS V14.01,2013-06-10 13:18:00,
2013-06-10 09:23:00,66.3,66.3,29.74,SSE,165,0.0,0.0,100,0.00,,BKN060,0.96,VWS V14.01,2013-06-10 13:23:00,
2013-06-10 09:28:00,66.4,66.4,29.73,South,186,3.5,4.7,100,0.00,,BKN060,0.96,VWS V14.01,2013-06-10 13:28:00,
2013-06-10 09:33:00,66.6,66.6,29.74,South,178,1.2,2.4,100,0.00,,BKN060,0.96,VWS V14.01,2013-06-10 13:33:00,
2013-06-10 09:38:00,66.8,66.8,29.74,SW,219,0.0,2.4,100,0.00,,BKN060,0.96,VWS V14.01,2013-06-10 13:38:00,
2013-06-10 09:43:00,66.8,66.8,29.74,SW,219,1.2,1.2,100,0.00,,BKN060,0.96,VWS V14.01,2013-06-10 13:43:00,
2013-06-10 09:48:00,66.9,66.9,29.74,SSW,196,4.7,8.3,100,0.00,,BKN060,0.96,VWS V14.01,2013-06-10 13:48:00,
2013-06-10 09:53:00,66.8,66.8,29.74,South,188,3.5,3.5,100,0.00,,OVC010,0.96,VWS V14.01,2013-06-10 13:53:00,
2013-06-10 09:58:00,66.8,66.8,29.74,SSW,194,4.7,4.7,100,0.00,,OVC010,0.96,VWS V14.01,2013-06-10 13:58:00,
2013-06-10 10:03:00,66.8,66.8,29.74,South,184,0.0,0.0,100,0.00,,OVC010,0.96,VWS V14.01,2013-06-10 14:03:00,
2013-06-10 10:08:00,66.9,66.9,29.74,South,184,1.2,1.2,100,0.00,,OVC010,0.96,VWS V14.01,2013-06-10 14:08:00,
2013-06-10 10:13:00,67.1,67.1,29.74,WSW,238,0.0,2.4,100,0.00,,OVC010,0.96,VWS V14.01,2013-06-10 14:13:00,
2013-06-10 10:18:00,67.3,67.3,29.74,SSW,206,1.2,1.2,100,0.00,,OVC010,0.96,VWS V14.01,2013-06-10 14:18:00,
2013-06-10 10:23:00,67.4,67.4,29.74,SSW,206,0.0,1.2,100,0.00,,OVC010,0.96,VWS V14.01,2013-06-10 14:23:00,
2013-06-10 10:28:00,67.3,67.3,29.74,WSW,239,0.0,3.5,100,0.00,,OVC010,0.96,VWS V14.01,2013-06-10 14:28:00,
2013-06-10 10:33:00,67.1,67.1,29.74,SSW,200,0.0,1.2,100,0.00,,OVC010,0.96,VWS V14.01,2013-06-10 14:33:00,
2013-06-10 10:38:00,67.1,67.1,29.74,SSW,202,4.7,5.9,100,0.00,,OVC010,0.96,VWS V14.01,2013-06-10 14:38:00,
2013-06-10 10:43:00,67.1,67.1,29.74,SW,219,3.5,4.7,100,0.00,,OVC010,0.96,VWS V14.01,2013-06-10 14:43:00,
2013-06-10 10:48:00,67.1,67.1,29.74,SSW,206,1.2,1.2,100,0.00,,OVC010,0.96,VWS V14.01,2013-06-10 14:48:00,
2013-06-10 10:53:00,67.1,67.1,29.74,SW,236,2.4,2.4,100,0.00,,OVC010,0.96,VWS V14.01,2013-06-10 14:53:00,
2013-06-10 10:58:00,67.4,67.4,29.74,SSW,200,5.9,5.9,100,0.00,,OVC010,0.96,VWS V14.01,2013-06-10 14:58:00,
2013-06-10 11:04:00,67.6,67.6,29.74,SW,229,3.5,8.3,100,0.00,,OVC010,0.96,VWS V14.01,2013-06-10 15:04:00,
2013-06-10 11:09:00,67.9,67.9,29.74,WSW,249,1.2,4.7,100,0.00,,OVC010,0.96,VWS V14.01,2013-06-10 15:09:00,
2013-06-10 11:14:00,68.1,67.5,29.74,SW,228,4.7,8.3,98,0.00,,OVC010,0.96,VWS V14.01,2013-06-10 15:14:00,
2013-06-10 11:19:00,68.3,67.1,29.74,SW,219,1.2,7.1,96,0.00,,OVC010,0.96,VWS V14.01,2013-06-10 15:19:00,
2013-06-10 11:24:00,68.6,67.1,29.73,SSW,204,3.5,13.0,95,0.00,,OVC010,0.96,VWS V14.01,2013-06-10 15:24:00,
2013-06-10 11:29:00,69.1,67.3,29.74,West,268,9.4,9.4,94,0.00,,OVC010,0.96,VWS V14.01,2013-06-10 15:29:00,
2013-06-10 11:34:00,69.3,67.2,29.73,SSW,194,2.4,5.9,93,0.00,,OVC010,0.96,VWS V14.01,2013-06-10 15:34:00,
2013-06-10 11:39:00,69.6,67.2,29.74,SSW,196,5.9,5.9,92,0.00,,OVC010,0.96,VWS V14.01,2013-06-10 15:39:00,
2013-06-10 11:44:00,69.9,67.1,29.74,SSW,210,3.5,5.9,91,0.00,,OVC010,0.96,VWS V14.01,2013-06-10 15:44:00,
2013-06-10 11:49:00,70.3,67.2,29.74,SSW,196,5.9,9.4,90,0.00,,OVC010,0.96,VWS V14.01,2013-06-10 15:49:00,
2013-06-10 11:54:00,70.6,67.2,29.74,SSW,204,7.1,14.2,89,0.00,,-RA,0.96,VWS V14.01,2013-06-10 15:54:00,
2013-06-10 11:59:00,70.9,67.1,29.74,SSE,166,2.4,7.1,88,0.00,,-RA,0.96,VWS V14.01,2013-06-10 15:59:00,
2013-06-10 12:04:00,71.1,67.0,29.74,SW,225,3.5,9.4,87,0.00,,-RA,0.96,VWS V14.01,2013-06-10 16:04:00,
2013-06-10 12:09:00,71.1,66.7,29.73,SW,218,2.4,4.7,86,0.00,,-RA,0.96,VWS V14.01,2013-06-10 16:09:00,
2013-06-10 12:14:00,71.1,66.0,29.73,SW,228,9.4,10.6,84,0.00,,-RA,0.96,VWS V14.01,2013-06-10 16:14:00,
2013-06-10 12:19:00,71.3,65.8,29.73,SSW,200,4.7,4.7,83,0.00,,-RA,0.96,VWS V14.01,2013-06-10 16:19:00,
2013-06-10 12:24:00,71.6,66.1,29.73,SW,222,0.0,9.4,83,0.00,,-RA,0.96,VWS V14.01,2013-06-10 16:24:00,
2013-06-10 12:29:00,71.8,65.9,29.74,South,169,5.9,5.9,82,0.00,,-RA,0.96,VWS V14.01,2013-06-10 16:29:00,
2013-06-10 12:34:00,72.1,65.5,29.73,SSW,205,5.9,7.1,80,0.00,,-RA,0.96,VWS V14.01,2013-06-10 16:34:00,
2013-06-10 12:39:00,72.7,66.5,29.73,WNW,289,7.1,8.3,81,0.00,,-RA,0.96,VWS V14.01,2013-06-10 16:39:00,
2013-06-10 12:44:00,73.2,66.6,29.73,SW,232,0.0,5.9,80,0.00,,-RA,0.96,VWS V14.01,2013-06-10 16:44:00,
2013-06-10 12:49:00,73.7,66.0,29.73,WSW,253,3.5,5.9,77,0.00,,-RA,0.96,VWS V14.01,2013-06-10 16:49:00,
2013-06-10 12:54:00,74.2,66.4,29.73,WNW,299,2.4,8.3,77,0.00,,BKN080,0.96,VWS V14.01,2013-06-10 16:54:00,
2013-06-10 12:59:00,74.6,66.8,29.73,South,180,7.1,7.1,77,0.00,,BKN080,0.96,VWS V14.01,2013-06-10 16:59:00,
2013-06-10 13:04:00,74.7,66.5,29.73,SW,232,1.2,4.7,76,0.00,,BKN080,0.96,VWS V14.01,2013-06-10 17:04:00,
2013-06-10 13:09:00,74.9,66.3,29.73,SSW,205,0.0,2.4,75,0.00,,BKN080,0.96,VWS V14.01,2013-06-10 17:09:00,
2013-06-10 13:14:00,74.9,66.0,29.73,SSW,192,4.7,8.3,74,0.00,,BKN080,0.96,VWS V14.01,2013-06-10 17:14:00,
2013-06-10 13:19:00,74.9,65.6,29.73,WNW,296,1.2,8.3,73,0.00,,BKN080,0.96,VWS V14.01,2013-06-10 17:19:00,
2013-06-10 13:24:00,74.9,65.6,29.72,SSW,202,0.0,4.7,73,0.00,,BKN080,0.96,VWS V14.01,2013-06-10 17:24:00,
2013-06-10 13:29:00,74.9,65.6,29.73,SW,235,2.4,5.9,73,0.00,,BKN080,0.96,VWS V14.01,2013-06-10 17:29:00,
2013-06-10 13:34:00,74.6,65.3,29.73,WNW,301,2.4,4.7,73,0.00,,BKN080,0.96,VWS V14.01,2013-06-10 17:34:00,
2013-06-10 13:39:00,74.4,65.5,29.73,West,262,0.0,5.9,74,0.00,,BKN080,0.96,VWS V14.01,2013-06-10 17:39:00,
2013-06-10 13:44:00,74.0,65.1,29.73,SW,224,1.2,2.4,74,0.00,,BKN080,0.96,VWS V14.01,2013-06-10 17:44:00,
2013-06-10 13:49:00,73.5,65.0,29.73,WNW,282,3.5,8.3,75,0.02,,BKN080,0.98,VWS V14.01,2013-06-10 17:49:00,
2013-06-10 13:54:00,73.0,64.5,29.73,West,259,1.2,2.4,75,0.03,,-RA,0.99,VWS V14.01,2013-06-10 17:54:00,
2013-06-10 13:59:00,72.7,64.6,29.73,West,259,0.0,1.2,76,0.04,,-RA,1.00,VWS V14.01,2013-06-10 17:59:00,
2013-06-10 14:04:00,72.1,64.4,29.73,WSW,250,1.2,4.7,77,0.04,,-RA,1.00,VWS V14.01,2013-06-10 18:04:00,
2013-06-10 14:09:00,71.8,64.5,29.73,WSW,250,0.0,1.2,78,0.04,,-RA,1.00,VWS V14.01,2013-06-10 18:09:00,
2013-06-10 14:14:00,71.5,64.9,29.73,SW,236,0.0,1.2,80,0.04,,-RA,1.00,VWS V14.01,2013-06-10 18:14:00,
2013-06-10 14:19:00,71.1,64.9,29.73,SW,236,0.0,0.0,81,0.04,,-RA,1.00,VWS V14.01,2013-06-10 18:19:00,
2013-06-10 14:24:00,70.8,65.0,29.73,SW,236,0.0,0.0,82,0.04,,-RA,1.00,VWS V14.01,2013-06-10 18:24:00,
2013-06-10 14:29:00,70.6,64.8,29.73,WSW,237,0.0,2.4,82,0.04,,-RA,1.00,VWS V14.01,2013-06-10 18:29:00,
2013-06-10 14:34:00,70.6,65.1,29.73,WSW,237,0.0,1.2,83,0.04,,-RA,1.00,VWS V14.01,2013-06-10 18:34:00,
2013-06-10 14:39:00,70.8,65.7,29.73,WSW,237,0.0,1.2,84,0.04,,-RA,1.00,VWS V14.01,2013-06-10 18:39:00,
2013-06-10 14:44:00,70.8,66.0,29.73,NW,323,0.0,2.4,85,0.04,,-RA,1.00,VWS V14.01,2013-06-10 18:44:00,
2013-06-10 14:49:00,70.8,66.0,29.74,NW,323,1.2,2.4,85,0.03,,-RA,1.00,VWS V14.01,2013-06-10 18:49:00,
2013-06-10 14:54:00,70.9,66.5,29.74,NW,323,0.0,0.0,86,0.01,,OVC085,1.00,VWS V14.01,2013-06-10 18:54:00,
2013-06-10 14:59:00,70.9,66.8,29.73,North,5,1.2,1.2,87,0.00,,OVC085,1.00,VWS V14.01,2013-06-10 18:59:00,
2013-06-10 15:04:00,71.1,67.0,29.74,North,5,0.0,0.0,87,0.00,,OVC085,1.00,VWS V14.01,2013-06-10 19:04:00,
2013-06-10 15:09:00,71.3,67.2,29.74,SW,232,5.9,5.9,87,0.00,,OVC085,1.00,VWS V14.01,2013-06-10 19:09:00,
2013-06-10 15:14:00,71.3,67.2,29.74,NNW,331,1.2,1.2,87,0.00,,OVC085,1.00,VWS V14.01,2013-06-10 19:14:00,
2013-06-10 15:19:00,71.3,67.2,29.74,NW,312,1.2,7.1,87,0.00,,OVC085,1.00,VWS V14.01,2013-06-10 19:19:00,
2013-06-10 15:24:00,71.3,67.2,29.74,WNW,292,4.7,5.9,87,0.00,,OVC085,1.00,VWS V14.01,2013-06-10 19:24:00,
2013-06-10 15:29:00,71.1,66.7,29.74,WNW,301,0.0,4.7,86,0.00,,OVC085,1.00,VWS V14.01,2013-06-10 19:29:00,
2013-06-10 15:34:00,70.9,66.1,29.74,WNW,284,3.5,5.9,85,0.00,,OVC085,1.00,VWS V14.01,2013-06-10 19:34:00,
2013-06-10 15:39:00,70.8,66.0,29.74,WNW,294,2.4,2.4,85,0.00,,OVC085,1.00,VWS V14.01,2013-06-10 19:39:00,
2013-06-10 15:44:00,70.8,66.0,29.74,NW,304,3.5,3.5,85,0.00,,OVC085,1.00,VWS V14.01,2013-06-10 19:44:00,
2013-06-10 15:49:00,70.6,65.5,29.74,NW,304,1.2,1.2,84,0.00,,OVC085,1.00,VWS V14.01,2013-06-10 19:49:00,
2013-06-10 15:54:00,70.6,65.5,29.74,WNW,286,0.0,2.4,84,0.00,,BKN100,1.00,VWS V14.01,2013-06-10 19:54:00,
2013-06-10 15:59:00,70.6,65.5,29.74,WNW,288,3.5,3.5,84,0.00,,BKN100,1.00,VWS V14.01,2013-06-10 19:59:00,
2013-06-10 16:04:00,70.6,65.5,29.74,NW,311,3.5,3.5,84,0.00,,BKN100,1.00,VWS V14.01,2013-06-10 20:04:00,
2013-06-10 16:09:00,70.9,66.1,29.74,NW,311,0.0,3.5,85,0.00,,BKN100,1.00,VWS V14.01,2013-06-10 20:09:00,
2013-06-10 16:14:00,71.5,66.7,29.74,WNW,288,1.2,2.4,85,0.00,,BKN100,1.00,VWS V14.01,2013-06-10 20:14:00,
2013-06-10 16:19:00,73.2,67.3,29.73,NW,308,0.0,3.5,82,0.00,,BKN100,1.00,VWS V14.01,2013-06-10 20:19:00,
2013-06-10 16:24:00,74.9,67.1,29.73,WNW,294,0.0,10.6,77,0.00,,BKN100,1.00,VWS V14.01,2013-06-10 20:24:00,
2013-06-10 16:29:00,76.0,66.6,29.73,NW,308,3.5,4.7,73,0.00,,BKN100,1.00,VWS V14.01,2013-06-10 20:29:00,
2013-06-10 16:34:00,76.7,66.9,29.73,West,263,4.7,4.7,72,0.00,,BKN100,1.00,VWS V14.01,2013-06-10 20:34:00,
2013-06-10 16:39:00,76.5,66.3,29.73,West,261,1.2,3.5,71,0.00,,BKN100,1.00,VWS V14.01,2013-06-10 20:39:00,
2013-06-10 16:44:00,76.3,65.3,29.73,NNW,329,3.5,7.1,69,0.00,,BKN100,1.00,VWS V14.01,2013-06-10 20:44:00,
2013-06-10 16:49:00,76.0,65.0,29.73,NNW,338,5.9,7.1,69,0.00,,BKN100,1.00,VWS V14.01,2013-06-10 20:49:00,
2013-06-10 16:54:00,75.8,65.2,29.73,NW,314,1.2,2.4,70,0.00,,OVC100,1.00,VWS V14.01,2013-06-10 20:54:00,
2013-06-10 16:59:00,75.6,65.4,29.73,NW,315,2.4,2.4,71,0.00,,OVC100,1.00,VWS V14.01,2013-06-10 20:59:00,
2013-06-10 17:04:00,75.4,65.2,29.73,WNW,288,0.0,0.0,71,0.00,,OVC100,1.00,VWS V14.01,2013-06-10 21:04:00,
2013-06-10 17:09:00,75.4,65.6,29.73,WNW,288,0.0,2.4,72,0.00,,OVC100,1.00,VWS V14.01,2013-06-10 21:09:00,
2013-06-10 17:14:00,75.4,65.6,29.73,NW,313,1.2,4.7,72,0.00,,OVC100,1.00,VWS V14.01,2013-06-10 21:14:00,
2013-06-10 17:19:00,75.6,65.4,29.73,NW,313,0.0,0.0,71,0.00,,OVC100,1.00,VWS V14.01,2013-06-10 21:19:00,
2013-06-10 17:24:00,75.8,65.6,29.73,WNW,302,0.0,1.2,71,0.00,,OVC100,1.00,VWS V14.01,2013-06-10 21:24:00,
2013-06-10 17:29:00,75.8,65.6,29.73,WNW,292,1.2,1.2,71,0.00,,OVC100,1.00,VWS V14.01,2013-06-10 21:29:00,
2013-06-10 17:34:00,75.8,65.6,29.73,WNW,296,0.0,1.2,71,0.00,,OVC100,1.00,VWS V14.01,2013-06-10 21:34:00,
2013-06-10 17:39:00,75.8,65.6,29.73,West,259,2.4,2.4,71,0.00,,OVC100,1.00,VWS V14.01,2013-06-10 21:39:00,
2013-06-10 17:44:00,75.8,65.2,29.73,WNW,294,1.2,2.4,70,0.00,,OVC100,1.00,VWS V14.01,2013-06-10 21:44:00,
2013-06-10 17:49:00,75.6,64.6,29.73,WSW,258,3.5,5.9,69,0.00,,OVC100,1.00,VWS V14.01,2013-06-10 21:49:00,
2013-06-10 17:54:00,75.6,64.6,29.74,West,273,1.2,2.4,69,0.00,,BKN095,1.00,VWS V14.01,2013-06-10 21:54:00,
2013-06-10 17:59:00,75.4,64.8,29.74,WNW,290,4.7,5.9,70,0.00,,BKN095,1.00,VWS V14.01,2013-06-10 21:59:00,
2013-06-10 18:04:00,75.3,64.7,29.74,WNW,290,3.5,5.9,70,0.00,,BKN095,1.00,VWS V14.01,2013-06-10 22:04:00,
2013-06-10 18:09:00,74.9,64.3,29.74,NW,309,4.7,5.9,70,0.00,,BKN095,1.00,VWS V14.01,2013-06-10 22:09:00,
2013-06-10 18:14:00,74.7,64.6,29.74,NW,325,2.4,2.4,71,0.00,,BKN095,1.00,VWS V14.01,2013-06-10 22:14:00,
2013-06-10 18:19:00,74.4,65.1,29.74,NW,325,3.5,5.9,73,0.00,,BKN095,1.00,VWS V14.01,2013-06-10 22:19:00,
2013-06-10 18:24:00,74.2,64.9,29.74,NW,319,5.9,8.3,73,0.00,,BKN095,1.00,VWS V14.01,2013-06-10 22:24:00,
2013-06-10 18:29:00,73.9,64.2,29.75,NW,325,7.1,7.1,72,0.00,,BKN095,1.00,VWS V14.01,2013-06-10 22:29:00,
2013-06-10 18:34:00,73.7,64.4,29.74,NW,318,5.9,7.1,73,0.00,,BKN095,1.00,VWS V14.01,2013-06-10 22:34:00,
2013-06-10 18:39:00,73.7,64.4,29.74,NW,311,3.5,7.1,73,0.00,,BKN095,1.00,VWS V14.01,2013-06-10 22:39:00,
2013-06-10 18:44:00,73.7,64.8,29.75,NW,306,2.4,5.9,74,0.00,,BKN095,1.00,VWS V14.01,2013-06-10 22:44:00,
2013-06-10 18:49:00,73.9,65.0,29.75,NW,320,5.9,7.1,74,0.00,,BKN095,1.00,VWS V14.01,2013-06-10 22:49:00,
2013-06-10 18:54:00,73.7,64.4,29.75,NW,317,4.7,10.6,73,0.00,,BKN035,1.00,VWS V14.01,2013-06-10 22:54:00,
2013-06-10 18:59:00,73.5,64.6,29.75,NNW,342,4.7,8.3,74,0.00,,BKN035,1.00,VWS V14.01,2013-06-10 22:59:00,
2013-06-10 19:04:00,73.7,65.2,29.75,NW,319,5.9,5.9,75,0.00,,BKN035,1.00,VWS V14.01,2013-06-10 23:04:00,
2013-06-10 19:10:00,73.9,65.0,29.75,NW,315,5.9,8.3,74,0.00,,BKN035,1.00,VWS V14.01,2013-06-10 23:10:00,
2013-06-10 19:15:00,73.7,64.8,29.75,NW,324,5.9,7.1,74,0.00,,BKN035,1.00,VWS V14.01,2013-06-10 23:15:00,
2013-06-10 19:20:00,73.3,64.8,29.76,NNW,327,4.7,8.3,75,0.00,,BKN035,1.00,VWS V14.01,2013-06-10 23:20:00,
2013-06-10 19:25:00,73.2,64.7,29.76,NNW,333,4.7,5.9,75,0.00,,BKN035,1.00,VWS V14.01,2013-06-10 23:25:00,
2013-06-10 19:30:00,73.2,64.7,29.76,NNW,334,4.7,5.9,75,0.00,,BKN035,1.00,VWS V14.01,2013-06-10 23:30:00,
2013-06-10 19:35:00,73.0,64.5,29.76,NNW,338,4.7,5.9,75,0.00,,BKN035,1.00,VWS V14.01,2013-06-10 23:35:00,
2013-06-10 19:40:00,73.0,64.5,29.76,NNW,339,5.9,7.1,75,0.00,,BKN035,1.00,VWS V14.01,2013-06-10 23:40:00,
2013-06-10 19:45:00,72.5,63.7,29.76,NW,321,5.9,7.1,74,0.00,,BKN035,1.00,VWS V14.01,2013-06-10 23:45:00,
2013-06-10 19:50:00,72.1,63.3,29.77,WNW,303,0.0,3.5,74,0.00,,BKN015,1.00,VWS V14.01,2013-06-10 23:50:00,
2013-06-10 19:55:00,71.8,63.4,29.76,NW,306,3.5,3.5,75,0.00,,BKN015,1.00,VWS V14.01,2013-06-10 23:55:00,
2013-06-10 20:00:00,71.5,63.5,29.77,NW,321,5.9,5.9,76,0.00,,BKN015,1.00,VWS V14.01,2013-06-11 00:00:00,
2013-06-10 20:05:00,71.1,63.4,29.77,NNW,339,2.4,4.7,77,0.00,,BKN015,1.00,VWS V14.01,2013-06-11 00:05:00,
2013-06-10 20:10:00,70.9,63.6,29.77,NNW,339,4.7,4.7,78,0.00,,BKN015,1.00,VWS V14.01,2013-06-11 00:10:00,
2013-06-10 20:15:00,70.6,63.7,29.77,NW,321,3.5,4.7,79,0.00,,BKN015,1.00,VWS V14.01,2013-06-11 00:15:00,
2013-06-10 20:20:00,70.3,63.4,29.77,NW,321,2.4,4.7,79,0.00,,BKN015,1.00,VWS V14.01,2013-06-11 00:20:00,
2013-06-10 20:25:00,70.1,63.6,29.77,NW,321,1.2,1.2,80,0.00,,BKN015,1.00,VWS V14.01,2013-06-11 00:25:00,
2013-06-10 20:30:00,69.9,63.4,29.77,NW,321,1.2,2.4,80,0.00,,BKN015,1.00,VWS V14.01,2013-06-11 00:30:00,
2013-06-10 20:35:00,69.8,63.6,29.77,NW,321,1.2,4.7,81,0.00,,BKN015,1.00,VWS V14.01,2013-06-11 00:35:00,
2013-06-10 20:40:00,69.6,63.5,29.77,NW,317,0.0,3.5,81,0.00,,BKN015,1.00,VWS V14.01,2013-06-11 00:40:00,
2013-06-10 20:45:00,69.4,63.2,29.77,NW,326,2.4,4.7,81,0.00,,BKN015,1.00,VWS V14.01,2013-06-11 00:45:00,
2013-06-10 20:50:00,69.3,63.2,29.77,WNW,298,0.0,2.4,81,0.00,,BKN014,1.00,VWS V14.01,2013-06-11 00:50:00,
2013-06-10 20:55:00,68.9,62.8,29.77,NNW,329,2.4,4.7,81,0.00,,BKN014,1.00,VWS V14.01,2013-06-11 00:55:00,
2013-06-10 21:00:00,68.8,63.0,29.77,WNW,291,1.2,2.4,82,0.00,,BKN014,1.00,VWS V14.01,2013-06-11 01:00:00,
2013-06-10 21:05:00,68.6,62.8,29.77,NW,319,0.0,3.5,82,0.00,,BKN014,1.00,VWS V14.01,2013-06-11 01:05:00,
2013-06-10 21:10:00,68.4,63.0,29.77,NW,319,1.2,3.5,83,0.00,,BKN014,1.00,VWS V14.01,2013-06-11 01:10:00,
2013-06-10 21:15:00,68.3,62.9,29.77,NW,319,1.2,2.4,83,0.00,,BKN014,1.00,VWS V14.01,2013-06-11 01:15:00,
2013-06-10 21:20:00,68.3,62.9,29.78,West,278,1.2,4.7,83,0.00,,BKN014,1.00,VWS V14.01,2013-06-11 01:20:00,
2013-06-10 21:25:00,68.1,63.0,29.78,West,269,2.4,2.4,84,0.00,,BKN014,1.00,VWS V14.01,2013-06-11 01:25:00,
2013-06-10 21:30:00,67.9,62.8,29.78,NW,306,3.5,3.5,84,0.00,,BKN014,1.00,VWS V14.01,2013-06-11 01:30:00,
2013-06-10 21:35:00,67.8,62.7,29.78,WNW,302,2.4,4.7,84,0.00,,BKN014,1.00,VWS V14.01,2013-06-11 01:35:00,
2013-06-10 21:40:00,67.6,62.9,29.79,NW,317,3.5,4.7,85,0.00,,BKN014,1.00,VWS V14.01,2013-06-11 01:40:00,
2013-06-10 21:45:00,67.6,62.9,29.79,NW,307,4.7,4.7,85,0.00,,BKN014,1.00,VWS V14.01,2013-06-11 01:45:00,
2013-06-10 21:50:00,67.3,62.6,29.79,West,269,5.9,7.1,85,0.00,,OVC008,1.00,VWS V14.01,2013-06-11 01:50:00,
2013-06-10 21:55:00,67.1,62.7,29.79,NNW,332,4.7,7.1,86,0.00,,OVC008,1.00,VWS V14.01,2013-06-11 01:55:00,
2013-06-10 22:00:00,66.8,62.4,29.80,NW,326,4.7,7.1,86,0.00,,OVC008,1.00,VWS V14.01,2013-06-11 02:00:00,
2013-06-10 22:05:00,66.6,62.6,29.80,NNW,343,3.5,4.7,87,0.00,,OVC008,1.00,VWS V14.01,2013-06-11 02:05:00,
2013-06-10 22:10:00,66.3,62.3,29.80,NW,304,3.5,4.7,87,0.00,,OVC008,1.00,VWS V14.01,2013-06-11 02:10:00,
2013-06-10 22:15:00,66.1,62.4,29.80,NW,309,3.5,5.9,88,0.00,,OVC008,1.00,VWS V14.01,2013-06-11 02:15:00,
2013-06-10 22:20:00,66.0,62.3,29.81,NW,312,3.5,4.7,88,0.00,,OVC008,1.00,VWS V14.01,2013-06-11 02:20:00,
2013-06-10 22:25:00,65.8,62.1,29.81,NW,323,2.4,4.7,88,0.00,,OVC008,1.00,VWS V14.01,2013-06-11 02:25:00,
2013-06-10 22:30:00,65.6,62.2,29.81,NW,307,2.4,3.5,89,0.00,,OVC008,1.00,VWS V14.01,2013-06-11 02:30:00,
2013-06-10 22:35:00,65.5,62.1,29.81,NW,306,3.5,3.5,89,0.00,,OVC008,1.00,VWS V14.01,2013-06-11 02:35:00,
2013-06-10 22:40:00,65.5,62.1,29.81,NW,311,3.5,4.7,89,0.00,,OVC008,1.00,VWS V14.01,2013-06-11 02:40:00,
2013-06-10 22:45:00,65.3,62.3,29.81,NW,312,2.4,3.5,90,0.00,,OVC008,1.00,VWS V14.01,2013-06-11 02:45:00,
2013-06-10 22:50:00,65.3,62.3,29.81,NW,312,2.4,3.5,90,0.00,,OVC006,1.00,VWS V14.01,2013-06-11 02:50:00,
2013-06-10 22:55:00,65.2,62.2,29.82,NW,312,2.4,3.5,90,0.00,,OVC006,1.00,VWS V14.01,2013-06-11 02:55:00,
2013-06-10 23:00:00,65.2,62.5,29.82,NW,318,2.4,3.5,91,0.00,,OVC006,1.00,VWS V14.01,2013-06-11 03:00:00,
2013-06-10 23:05:00,65.0,62.3,29.81,NW,316,2.4,3.5,91,0.00,,OVC006,1.00,VWS V14.01,2013-06-11 03:05:00,
2013-06-10 23:10:00,65.0,62.3,29.82,NW,316,2.4,3.5,91,0.00,,OVC006,1.00,VWS V14.01,2013-06-11 03:10:00,
2013-06-10 23:15:00,65.0,62.3,29.82,NW,325,3.5,5.9,91,0.00,,OVC006,1.00,VWS V14.01,2013-06-11 03:15:00,
2013-06-10 23:20:00,64.8,62.1,29.82,NW,325,2.4,2.4,91,0.00,,OVC006,1.00,VWS V14.01,2013-06-11 03:20:00,
2013-06-10 23:25:00,64.8,62.4,29.82,WNW,302,4.7,4.7,92,0.00,,OVC006,1.00,VWS V14.01,2013-06-11 03:25:00,
2013-06-10 23:30:00,64.7,62.3,29.82,WNW,302,2.4,3.5,92,0.00,,OVC006,1.00,VWS V14.01,2013-06-11 03:30:00,
2013-06-10 23:35:00,64.7,62.3,29.83,WNW,302,1.2,4.7,92,0.00,,OVC006,1.00,VWS V14.01,2013-06-11 03:35:00,
2013-06-10 23:40:00,64.7,62.3,29.83,NW,307,2.4,3.5,92,0.00,,OVC006,1.00,VWS V14.01,2013-06-11 03:40:00,
2013-06-10 23:45:00,64.5,62.1,29.83,North,360,0.0,2.4,92,0.00,,OVC006,1.00,VWS V14.01,2013-06-11 03:45:00,
2013-06-10 23:50:00,64.5,62.1,29.83,North,360,2.4,2.4,92,0.00,,,1.00,VWS V14.01,2013-06-11 03:50:00,
2013-06-10 23:55:00,64.3,61.9,29.83,North,360,1.2,2.4,92,0.00,,,1.00,VWS V14.01,2013-06-11 03:55:00,